GEC12HL LEZL-LPPT

Flight info

Callsign GEC12HL
Flight time N/A
Altitude 31000
Route ONUBA5R ONUBA DCT NAPES DCT OSLEP DCT MINTA/N0491F300 DCT VATZI VATZI2A
Aircraft B77L/H-SDE1E2E3FGHIJ2J3J4J5M1RWXY/LB1D1

Departure

Time 2026-04-27 13:20
Airport Seville Airport (LEZL)

Arrival

Time N/A
Airport Lisbon Humberto Delgado Airport (LPPT)
Time Latitude Longitude Altitude Speed Heading
2026-04-27 13:13 37.42075 -5.90344 100 ft 0 kts 270°
2026-04-27 13:16 37.42075 -5.90348 100 ft 3 kts 270°
2026-04-27 13:16 37.42060 -5.90394 101 ft 7 kts 203°
2026-04-27 13:17 37.42039 -5.90383 101 ft 0 kts 144°
2026-04-27 13:17 37.42038 -5.90383 101 ft 0 kts 144°
2026-04-27 13:17 37.42027 -5.90385 103 ft 4 kts 194°
2026-04-27 13:17 37.41985 -5.90440 100 ft 18 kts 251°
2026-04-27 13:18 37.41976 -5.90661 96 ft 27 kts 269°
2026-04-27 13:18 37.41974 -5.90898 88 ft 25 kts 269°
2026-04-27 13:18 37.41976 -5.91118 87 ft 25 kts 271°
2026-04-27 13:18 37.41938 -5.91305 87 ft 14 kts 214°
2026-04-27 13:19 37.41856 -5.91263 90 ft 15 kts 127°
2026-04-27 13:19 37.41790 -5.91125 90 ft 16 kts 103°
2026-04-27 13:19 37.41789 -5.91106 89 ft 0 kts 90°
2026-04-27 13:19 37.41789 -5.91105 89 ft 1 kts 90°
2026-04-27 13:20 37.41790 -5.90955 92 ft 49 kts 90°
2026-04-27 13:20 37.41793 -5.90075 100 ft 150 kts 90°
2026-04-27 13:20 37.41804 -5.88488 488 ft 210 kts 87°
2026-04-27 13:20 37.41826 -5.86613 1592 ft 204 kts 92°
2026-04-27 13:21 37.41785 -5.84827 2730 ft 211 kts 94°